DW4277 Weather Reports


time (UTC)temp
C
wind
direction
speed
KPH
gust
KPH
rain 1hr
cm
rain 24hr
cm
rain mn
cm
humidity
%
barometer
mb
20190426100022 25 202 37.0 77.2 0.00 0.00 0.00 38 1007.8
20190426094513 24 202 35.4 66.0 0.00 0.00 0.00 39 1007.9
20190426093007 25 183 30.6 59.5 0.00 0.00 0.00 39 1007.9
20190426091523 25 217 32.2 64.4 0.00 0.00 0.00 38 1008.0
20190426090023 25 190 40.2 62.8 0.00 0.00 0.00 37 1007.9
20190426084503 26 190 30.6 59.5 0.00 0.00 0.00 37 1008.0
20190426081737 25 230 22.5 41.8 0.00 0.00 0.00 39 1008.1
20190426080113 24 219 8.0 38.6 0.00 0.00 0.00 44 1008.2
20190426074620 23 193 4.8 25.7 0.00 0.00 0.00 46 1008.4
20190426073128 22 194 1.6 9.7 0.00 0.00 0.00 50 1008.5
20190426071632 21 202 4.8 17.7 0.00 0.00 0.00 52 1008.6
20190426070108 20 177 9.7 16.1 0.00 0.00 0.00 53 1008.8
20190426064600 18 179 8.0 12.9 0.00 0.00 0.00 56 1008.9
20190426063100 16 198 4.8 9.7 0.00 0.00 0.00 63 1009.1
20190426061532 15 198 0.0 0.0 0.00 0.00 0.00 74 1009.2
20190426060044 14 198 0.0 1.6 0.00 0.00 0.00 76 1009.1
20190426054619 14 198 1.6 4.8 0.00 0.00 0.00 77 1009.2
20190426053044 13 224 0.0 0.0 0.00 0.00 0.00 77 1009.2
20190426051522 13 224 0.0 1.6 0.00 0.00 0.00 78 1009.2
20190426050029 12 224 1.6 8.0 0.00 0.00 0.00 79 1009.1
20190426044539 12 224 0.0 4.8 0.00 0.00 0.00 80 1009.2
20190426043029 12 224 1.6 9.7 0.00 0.00 0.00 80 1009.1
20190426041529 12 194 3.2 8.0 0.00 0.00 0.00 80 1009.1
20190426040006 12 194 0.0 3.2 0.00 0.00 0.00 78 1009.2
20190426034505 12 194 3.2 8.0 0.00 0.00 0.00 77 1009.1
20190426033149 12 194 6.4 9.7 0.00 0.00 0.00 77 1009.1
20190426031705 12 194 0.0 11.3 0.00 0.00 0.00 77 1009.2
20190426030303 12 194 3.2 12.9 0.00 0.00 0.00 77 1009.1
20190426024657 12 194 6.4 9.7 0.00 0.00 0.00 77 1009.2
20190426023236 13 194 4.8 9.7 0.00 0.00 0.00 76 1009.2
20190426021633 13 194 0.0 9.7 0.00 0.00 0.00 74 1009.2
20190426020224 13 194 0.0 6.4 0.00 0.00 0.00 72 1009.3
20190426014628 13 194 3.2 11.3 0.00 0.00 0.00 68 1009.3
20190426013059 15 194 0.0 1.6 0.00 0.00 0.00 65 1009.4
20190426010120 15 194 0.0 4.8 0.00 0.00 0.00 58 1009.1
20190426004558 15 194 4.8 8.0 0.00 0.00 0.00 59 1009.2
20190426003145 15 194 1.6 6.4 0.00 0.00 0.00 60 1009.2
20190426001613 16 194 8.0 11.3 0.00 0.00 0.00 59 1009.0
20190426000042 16 194 0.0 9.7 0.00 0.00 0.00 61 1009.1
20190425234534 16 194 6.4 9.7 0.00 0.00 0.00 57 1009.1
20190425233047 16 194 3.2 11.3 0.00 0.00 0.00 55 1009.3
20190425231552 16 194 6.4 9.7 0.00 0.00 0.00 55 1009.1
20190425230114 16 194 3.2 6.4 0.00 0.00 0.00 56 1009.2
20190425224538 17 194 0.0 6.4 0.00 0.00 0.00 56 1009.3
20190425223054 17 194 4.8 12.9 0.00 0.00 0.00 55 1009.3
20190425221546 17 194 6.4 12.9 0.00 0.00 0.00 53 1009.3
20190425220013 18 194 4.8 12.9 0.00 0.00 0.00 52 1009.3
20190425214520 18 194 8.0 20.9 0.00 0.00 0.00 52 1009.3
20190425213014 18 194 8.0 22.5 0.00 0.00 0.00 52 1009.2
20190425211549 18 194 8.0 16.1 0.00 0.00 0.00 54 1009.3
20190425210017 18 194 11.3 20.9 0.00 0.00 0.00 53 1009.4
20190425204509 18 194 14.5 27.4 0.00 0.00 0.00 53 1009.4
20190425203012 19 197 11.3 27.4 0.00 0.00 0.00 54 1009.5
20190425201513 19 196 12.9 24.1 0.00 0.00 0.00 53 1009.5
20190425200014 20 192 14.5 27.4 0.00 0.00 0.00 52 1009.4
20190425194510 20 181 17.7 29.0 0.00 0.00 0.00 51 1009.6
20190425193018 20 177 17.7 32.2 0.00 0.00 0.00 50 1009.6
20190425191507 21 187 20.9 38.6 0.00 0.00 0.00 49 1009.6
20190425190014 21 190 20.9 45.1 0.00 0.00 0.00 47 1009.6
20190425184527 21 175 24.1 35.4 0.00 0.00 0.00 46 1009.7
20190425183011 22 171 16.1 37.0 0.00 0.00 0.00 44 1009.7
20190425181505 22 189 19.3 45.1 0.00 0.00 0.00 43 1009.7
20190425180005 22 196 29.0 53.1 0.00 0.00 0.00 42 1009.6
20190425174510 23 209 32.2 54.7 0.00 0.00 0.00 42 1009.6
20190425173002 23 183 27.4 48.3 0.00 0.00 0.00 41 1009.6
20190425171502 24 213 29.0 54.7 0.00 0.00 0.00 38 1009.5
20190425170010 25 203 25.7 53.1 0.00 0.00 0.00 35 1009.4
20190425164645 25 191 27.4 66.0 0.00 0.00 0.00 34 1009.2
20190425163110 26 215 33.8 59.5 0.00 0.00 0.00 33 1009.1
20190425161641 26 215 32.2 61.2 0.00 0.00 0.00 33 1009.3
20190425160113 26 188 32.2 74.0 0.00 0.00 0.00 32 1009.4
20190425154546 26 196 24.1 54.7 0.00 0.00 0.00 33 1009.4
20190425153128 26 190 37.0 64.4 0.00 0.00 0.00 32 1009.5
20190425151551 26 181 24.1 57.9 0.00 0.00 0.00 33 1009.6
20190425150127 27 167 29.0 67.6 0.00 0.00 0.00 33 1009.7
20190425144548 27 138 24.1 62.8 0.00 0.00 0.00 33 1009.9
20190425143100 27 169 16.1 51.5 0.00 0.00 0.00 35 1010.1
20190425141543 27 142 20.9 35.4 0.00 0.00 0.00 35 1010.2
20190425140057 27 146 22.5 43.5 0.00 0.00 0.00 36 1010.4
20190425134632 27 102 14.5 37.0 0.00 0.00 0.00 37 1010.7
20190425133049 26 105 17.7 45.1 0.00 0.00 0.00 39 1011.0
20190425131547 27 130 20.9 30.6 0.00 0.00 0.00 38 1011.2
20190425130100 26 152 9.7 22.5 0.00 0.00 0.00 37 1011.4
20190425124544 26 150 11.3 30.6 0.00 0.00 0.00 37 1011.6
20190425123041 26 44 16.1 30.6 0.00 0.00 0.00 36 1011.7
20190425121529 26 127 12.9 33.8 0.00 0.00 0.00 38 1012.0
20190425120024 26 134 11.3 32.2 0.00 0.00 0.00 37 1012.1
20190425114532 25 98 9.7 32.2 0.00 0.00 0.00 37 1012.2
20190425113017 25 107 14.5 33.8 0.00 0.00 0.00 38 1012.3
20190425111517 25 47 12.9 37.0 0.00 0.00 0.00 40 1012.5
20190425110021 25 121 12.9 30.6 0.00 0.00 0.00 42 1012.7
20190425104509 24 146 9.7 25.7 0.00 0.00 0.00 43 1013.0
20190425103014 24 93 11.3 27.4 0.00 0.00 0.00 44 1013.0
20190425101503 23 53 11.3 20.9 0.00 0.00 0.00 44 1013.0